Location: Kawakawa
(35.3830°S, 174.0670°E)
Time: 18:41:10
(UTC+12:00)

Cosmos 1441 Rocket - Pass Details

Date: 15 August 2020
Orbit: 497 x 540 km, 81.1° (Epoch: 25 September)

Event Time Altitude Azimuth Distance (km) Brightness Sun altitude
Rises 18:26:00 0° 179° (S) 2,725 6.7 -7.5°
Reaches altitude 10° 18:28:21 10° 169° (S) 1,819 5.8 -8.0°
Maximum altitude 18:32:01 34° 103° (ESE) 901 3.9 -8.7°
Drops below altitude 10° 18:35:36 10° 37° (NE) 1,773 5.7 -9.5°
Sets 18:37:51 0° 27° (NNE) 2,645 6.6 -9.9°
